Probability
0 0 0 0 0 0 0 0 0 0 0 0 0 0 0 0 0 0 0 0 0 0 0 0 0 0 0 0 0 0 0 0 0 0 0 0 0 0
0 0 0 0 0 0 0 0 0 0 0 0 0 0 0 0 0 0 0 0 0 0 0 0 0 0 0 0 0 0 0 0 0 0 0 0 0 0
0 0 0 0 0 0 0 0 0 0 0 0 0 0 0 0 0 0 0 0 0 0 0 0 0 0 0 0 0 0 0 0 0 0 0 0 0 0
0 0 0 0 0 0 0 0 0 0 0 0 0 0 0 0 0 0 0 0 0 0 0 0 0 0 0 0 0 0 0 0 0 0 0 0 0 0
0 0 0 0 0 0 0 0 0 0 0 0 0 0 0 0 0 0 0 0 0 0 0 0 0 0 0 0 0 0 0 0 0 0 0 0 0 0
0 0 0 0 0 0 0 0 0 0 0 0 0 0 0 0 0 0 0 0 0 0 0 0 0 0 0 0 0 0 0 0 0 0 0 0 0 0
0 0 0 0 0 0 0 0 0 0 0 0 0 0 0 0 0 0 0 0 0 0 0 0 0 0 0 0 0 0 0 0 0 0 0 0 0 0
0 0 0 0 0 0 0 0 0 0 0 0 0 0 0 0 0 0 0 0 0 0 0 0 0 0 0 0 0 0 0 0 0 0 0 0 0 0
0 0 0 0 0 0 0 0 0 0 0 0 0 0 0 0 0 0 0 0 0 0 0 0 0 0 0 0 0 0 0 0 0 0 0 0 0 0
0 0 0 0 0 0 0 0 0 0 0 0 0 0 0 0 0 0 0 0 0 0 0 0 0 0 0 0 0 0 0 0 0 0 0 0 0 0
0 0 0 0 0 0 0 0 0 0 0 0 0 0 0 0 0 0 0 0 0 0 0 0 0 0 0 0 0 0 0 0 0 0 0 0 0 0
0 0 0 0 0 0 0 0 0 0 0 0 0 0 0 0 0 0 0 0 0 0 0 0 0 0 0 0 0 0 0 0 0 0 0 0 0 0
0 0 0 0 0 0 0 0 0 0 0 0 0 0 0 0 0 0 0 0 0 0 0 0 0 0 0 0 0 0 0 0 0 0 0 0 0 0
0 0 0 0 0 0 0 0 0 0 0 0 0 0 0 0 0 0 0 0 0 0 0 0 0 0 0 0 0 0 0 0 0 0 0 0 0 0
0 0 0 0 0 0 0 0 0 0 0 0 0 0 0 0 0 0 0 0 0 0 0 0 0 0 0 0 0 0 0 0 0 0 0 0 0 0
0 0 0 0 0 0 0 0 0 0 0 0 0 0 0 0 0 0 0 0 0 0 0 0 0 0 0 0 0 0 0 0 0 0 0 0 0 0
0 0 0 0 0 0 0 0 0 0 0 0 0 0 0 0 0 0 0 0 0 0 0 0 0 0 0 0 0 0 0 0 0 0 0 0 0 0
0 0 0 0 0 0 0 0 0 0 0 0 0 0 0 0 0 0 0 0 0 0 0 0 0 0 0 0 0 0 0 0 0 0 0 0 0 0
0 0 0 0 0 0 0 0 0 0 0 0 0 0 0 0 0 0 0 0 0 0 0 0 0 0 0 0 0 0 0 0 0 0 0 0 0 0
0 0 0 0 0 0 0 0 0 0 0 0 0 0 0 0 0 0 0 0 0 0 0 0 0 0 0 0 0 0 0 0 0 0 0 0 0 0
0 0 0 0 0 0 0 0 0 0 0 0 0 0 0 0 0 0 0 0 0 0 0 0 0 0 0 0 0 0 0 0 0 0 0 0 0 0
0 0 0 0 0 0 0 0 0 0 0 0 0 0 0 0 0 0 0 0 0 0 0 0 0 0 0 0 0 0 0 0 0 0 0 0 0 0
0 0 0 0 0 0 0 0 0 0 0 0 0 0 0 0 0 0 0 0 0 0 0 0 0 0 0 0 0 0 0 0 0 0 0 0 0 0
Wind_Speed
2 2 1 1 1 0 1 3 4 3 1 1 0 1 1 1 3 3 3 6 7 7 7 7 7 7 7 7 7 6 6 7 6 6 7 7 7 6
1 2 2 1 1 1 1 1 2 3 2 1 0 0 1 2 3 3 3 6 6 6 7 7 7 6 7 7 7 7 7 7 7 7 7 7 7 7
2 2 2 1 1 1 1 1 2 2 3 1 1 1 1 2 2 2 2 2 3 5 5 5 5 5 6 6 6 6 6 6 6 5 5 5 6 6
3 3 2 2 2 1 1 1 2 2 3 3 1 1 1 1 1 1 1 1 1 3 2 3 3 3 4 4 4 4 4 4 4 4 4 4 5 5
3 3 2 2 2 2 2 2 2 2 3 4 2 1 1 1 1 2 2 1 1 0 1 1 1 1 2 2 2 2 2 2 2 3 3 3 3 4
3 3 2 2 2 2 2 2 2 3 3 4 3 1 1 1 1 1 1 1 1 0 0 0 1 2 2 3 3 3 3 3 3 4 4 4 5 5
3 3 3 3 3 2 2 2 3 3 3 3 2 1 1 1 1 1 1 1 1 0 0 1 1 1 2 3 5 6 6 6 6 7 7 7 7 7
2 2 3 4 4 4 4 3 4 4 4 3 2 3 2 2 1 1 1 1 1 1 1 2 1 2 3 3 6 8 9 9 9 9 9 9 9 9
2 2 2 3 4 3 3 4 2 2 4 4 4 4 3 3 3 1 2 2 2 2 2 2 1 3 4 5 9 9 10 10 10 11 11 10 11 11
2 1 2 2 3 2 2 3 2 1 1 2 3 3 3 3 4 3 3 1 2 1 2 1 2 3 3 3 8 10 11 11 12 12 12 12 12 12
3 2 2 2 3 4 3 3 3 2 2 1 2 2 3 4 4 2 1 1 1 2 1 2 2 2 2 3 5 9 11 12 12 13 13 13 13 12
2 3 3 2 3 4 2 2 1 1 1 2 2 2 1 2 4 4 4 3 2 2 2 2 2 0 2 3 2 3 4 8 11 13 13 14 13 7
1 2 2 3 3 3 2 1 1 1 0 0 1 1 2 1 2 3 4 4 4 4 4 3 2 1 2 3 3 3 3 4 4 6 10 14 14 9
1 1 2 4 4 3 1 1 1 1 1 1 1 1 1 2 3 3 4 4 5 6 5 4 3 3 2 2 4 4 3 4 4 5 5 8 10 13
2 3 4 6 5 3 3 4 2 0 0 0 1 3 3 3 2 2 2 2 3 5 5 5 5 3 3 4 4 3 3 4 4 4 5 5 6 5
2 4 6 5 4 3 4 3 1 2 2 2 3 3 2 2 2 2 2 1 2 4 5 5 6 5 4 5 4 5 4 4 4 5 5 5 5 5
2 2 3 3 3 3 3 3 2 1 2 2 2 3 3 2 3 2 2 1 1 3 5 4 3 4 6 5 4 6 6 5 6 5 4 5 7 7
1 2 3 3 3 3 4 4 3 3 3 3 3 3 3 3 4 3 2 2 3 4 4 4 3 3 3 4 8 7 6 6 6 5 4 4 7 7
1 3 4 4 4 4 4 4 4 4 3 3 4 4 4 4 4 4 3 3 4 5 5 4 2 2 3 6 7 7 6 6 4 4 5 5 6 8
3 4 5 5 5 5 5 4 4 4 3 3 4 4 4 4 4 4 4 4 4 4 4 4 4 5 6 6 6 6 8 7 5 6 6 5 6 8
4 5 6 6 5 5 5 5 5 5 5 4 4 5 4 4 4 5 5 6 5 4 5 6 7 8 4 1 3 6 6 9 10 7 6 5 5 5
6 6 6 6 6 6 5 5 5 5 5 5 5 5 5 4 5 6 5 5 5 5 6 7 6 3 2 4 7 8 8 7 8 12 13 11 6 6
7 7 6 6 6 5 5 6 6 5 5 5 5 5 5 5 5 5 6 6 5 6 6 6 4 3 4 5 6 7 9 9 6 5 7 12 15 18
Wind_Direction
7 360 353 338 14 145 154 158 152 155 172 178 4 2 13 31 32 38 44 58 64 66 67 73 80 86 95 97 100 106 107 106 109 119 128 129 134 137
11 20 11 356 26 47 124 155 151 144 146 152 181 63 24 63 61 50 52 61 63 68 70 71 76 83 92 96 99 101 104 106 107 112 122 126 128 128
21 30 13 22 47 38 63 103 119 125 131 123 70 61 50 59 45 37 40 44 49 59 67 71 76 85 93 100 102 104 108 111 112 116 123 130 136 143
20 33 16 47 55 49 77 102 115 120 132 137 115 68 62 75 58 47 42 55 55 52 66 79 86 95 101 104 106 109 114 117 123 130 137 152 166 175
25 35 27 57 61 57 77 93 101 105 107 126 122 87 66 70 66 37 36 27 24 111 138 135 135 140 145 147 140 139 142 151 160 167 173 184 200 213
22 30 35 56 73 79 81 91 105 105 107 119 120 108 89 56 86 71 23 0 347 11 38 197 211 229 222 213 207 207 208 213 219 223 223 226 230 233
17 18 37 60 74 86 109 122 124 121 124 128 131 120 127 128 165 194 150 335 326 291 352 291 265 272 260 244 235 231 229 230 232 236 238 240 240 242
21 10 25 39 48 60 79 107 137 145 148 148 157 167 192 190 180 172 147 94 303 267 152 276 203 253 254 245 243 240 237 237 238 241 242 242 243 245
39 31 33 33 34 45 52 56 71 118 159 162 167 186 188 195 176 180 190 191 226 232 137 272 255 252 250 243 241 241 241 242 243 244 245 246 248 250
41 57 60 31 31 50 58 52 44 39 133 155 174 194 197 196 185 189 196 206 282 265 153 224 265 255 262 253 245 240 241 244 245 246 247 248 249 251
19 32 53 48 36 66 76 62 39 12 27 111 178 206 216 213 185 147 137 109 322 290 206 192 252 271 280 267 256 244 242 244 246 248 249 251 252 254
3 6 22 39 38 57 80 86 54 328 356 15 7 337 270 236 204 183 173 163 186 268 244 186 238 236 305 284 268 258 250 251 251 252 252 253 254 251
4 342 339 8 24 38 60 121 228 265 298 5 325 317 315 291 245 210 191 178 182 231 229 176 204 199 212 285 295 264 240 249 254 257 255 254 253 236
288 297 309 335 343 341 343 300 303 1 70 40 7 304 278 269 262 247 221 213 213 223 229 181 193 198 197 257 279 285 271 249 238 252 257 262 259 248
276 287 308 322 329 328 312 308 317 90 135 205 258 260 248 246 258 281 283 258 258 251 243 219 206 211 192 215 246 261 281 277 246 244 254 253 254 250
331 324 330 329 328 313 312 315 289 212 198 224 247 259 268 274 261 243 255 277 302 296 279 242 220 205 219 232 232 256 256 260 270 257 256 262 260 247
336 351 350 344 338 326 317 305 290 249 226 233 241 261 271 273 271 255 230 225 231 267 289 295 265 226 223 221 243 256 260 263 260 261 257 268 269 259
26 320 304 299 294 290 292 294 284 258 240 231 236 241 249 254 261 262 236 224 241 255 261 270 294 328 326 275 226 241 257 257 264 260 238 248 270 269
244 263 268 271 271 272 265 258 262 259 241 228 234 239 242 246 247 252 250 246 252 258 261 258 242 221 266 284 279 229 226 255 262 267 251 235 252 266
234 252 261 262 258 259 260 258 259 264 255 242 237 239 237 236 241 246 246 242 249 259 270 266 243 226 227 247 261 271 239 231 244 257 264 261 259 269
252 251 253 254 255 253 253 251 248 250 250 242 240 240 238 231 240 245 248 252 248 250 258 262 257 251 240 245 279 277 269 244 229 235 250 264 276 284
255 254 254 251 251 251 250 248 248 248 248 245 244 246 244 234 239 246 247 249 248 247 254 263 271 270 223 238 259 268 276 281 267 254 244 230 227 244
249 250 251 253 251 249 247 244 241 245 243 241 244 247 245 243 244 244 248 250 253 259 263 270 274 260 248 246 257 268 275 279 281 283 275 263 248 246